{"data":{"norad_id":65611,"intl_designator":"2025-207V","name":"STARLINK-35186","alt_names":[],"object_type":"PAYLOAD","status":"ACTIVE","operator":null,"country":"US","launch_date":"2025-09-13","launch_site_code":"AFWTR","launch_vehicle":null,"mission":null,"orbit_class":"UNKNOWN","rcs_meters":null,"size_class":null,"mass_kg":null,"dimensions":null,"purposes":["comms"],"wikipedia_slug":null,"has_3d_model":false,"image_url":null,"decayed_at":null,"tle_current":{"epoch":"2026-05-25T03:51:38.666880Z","epoch_age_seconds":71353,"freshness":"FRESH","line1":"1 65611U 25207V   26145.16086420  .00002825  00000+0  19971-3 0  9996","line2":"2 65611  97.4469 213.6045 0001839 128.9097 231.2294 15.05655168 39768","mean_motion":15.05655168,"eccentricity":0.0001839,"inclination_deg":97.4469,"raan_deg":213.6045,"arg_perigee_deg":128.9097,"mean_anomaly_deg":231.2294,"bstar":0.00019971,"rev_number":3976,"period_min":95.639428642402,"perigee_km":548.22131017652,"apogee_km":550.76929333711,"semimajor_km":6927.6323017568,"source":"CELESTRAK","updated_at":"2026-05-25T13:38:20.856157Z"}}}